Погода в Тельчье

Россия / Орловская область     53°20′52″N   36°19′56″E
темп.,
°C
ветер,
м/с
пор.,
м/с
влажн.,
%
обл.,
%
осадки,
мм/ч
давл.,
гПа
погр.,
м
6 мая, чт
чт600:00+9ю6148475 0.0 1010314
03:00+9ю51484100 0.0 1009342
06:00+11ю81872100 0.0 1008665
09:00+12ююз81673100 0.0 10081288
12:00+12ю111965100 0.2 10071495
15:00+11ююз91773100 0.3 10071475
18:00+9юз61194100 2.7 1008753
21:00+8юз3794100 2.9 1010227
7 мая, пт
пт700:00+6юз3994100 0.0 1011214
03:00+5з3791100 0.0 1012161
06:00+5зюз378954 0.0 1013167
09:00+10зюз46601 0.0 1014632
12:00+13юз57425 0.0 10141792
15:00+14ююз574681 0.0 10132171
18:00+13ю5961100 0.0 1013607
21:00+9ююв51171100 0.0 1013228
8 мая, сб
сб800:00+10ююв71663100 0.0 1011509
03:00+9ююв71582100 0.6 1009830
06:00+8ююв91692100 3.1 1006947
09:00+9ю61396100 5.8 1005685
12:00+10юз4998100 1.9 1004610
15:00+11юз61085100 4.1 1005961
18:00+9зюз8117823 0.3 10071111
21:00+4з81382100 0.3 10101002
9 мая, вс
вс900:00+5з71176100 0.0 10121005
03:00+4з611817 0.0 1013716
06:00+2з411905 0.0 1016503
09:00+7сз686965 0.0 10171112
12:00+10сз675488 0.1 10191925
15:00+10ссз7957100 0.1 10211953
18:00+10с49635 0.1 10231707
21:00+5ссв11795 0.1 102510
10 мая, пн
пн1000:00+4сз22784 0.0 102719
03:00+3с34820 0.0 102955
06:00+3с36815 0.0 1031117
09:00+10ссв46596 0.0 1031490
12:00+13св564862 0.0 10311450
15:00+14св57485 0.0 10301462
18:00+13св47600 0.0 1029810
21:00+8св46770 0.0 103078